EW1065 Weather Reports


Display with metric or nautical units.
time (UTC)temp
F
wind
direction
speed
MPH
gust
MPH
rain 1hr
in
rain 24hr
in
rain mn
in
humidity
%
barometer
mb
20260906200559 84 315 1.0 5.0 0.00 0.00 0.00 69 1015.0
20260906195519 85 0.0 3.0 0.00 0.00 0.00 66 1014.9
20260906194519 84 0.0 1.0 0.00 0.00 0.00 66 1014.8
20260906193519 85 0.0 2.0 0.00 0.00 0.00 65 1015.0
20260906192519 86 0.0 2.0 0.00 0.00 0.00 69 1015.0
20260906191519 85 0.0 2.0 0.00 0.00 0.00 67 1015.0
20260906190519 84 0.0 2.0 0.00 0.00 0.00 67 1015.0
20260906185519 83 315 1.0 5.0 0.00 0.00 0.00 69 1015.0
20260906184519 84 0.0 4.0 0.00 0.00 0.00 68 1015.2
20260906183519 85 270 1.0 3.0 0.00 0.00 0.00 72 1015.2
20260906182559 84 0.0 1.0 0.00 0.00 0.00 73 1015.2
20260906181519 84 338 1.0 4.0 0.00 0.00 0.00 69 1015.3
20260906180559 85 90 1.0 4.0 0.00 0.00 0.00 68 1015.4
20260906175519 86 0.0 2.0 0.00 0.00 0.00 68 1015.4
20260906173519 84 0.0 2.0 0.00 0.00 0.00 71 1015.5
20260906172519 83 0.0 3.0 0.00 0.00 0.00 75 1015.6
20260906171519 83 225 1.0 3.0 0.00 0.00 0.00 77 1015.6
20260906170519 82 0.0 1.0 0.00 0.00 0.00 77 1015.7
20260906165559 81 90 1.0 3.0 0.00 0.00 0.00 78 1015.6
20260906164519 80 0.0 2.0 0.00 0.00 0.00 82 1015.8
20260906163518 79 0.0 1.0 0.00 0.00 0.00 84 1016.1
20260906162519 79 90 1.0 7.0 0.00 0.00 0.00 82 1016.1
20260906161659 79 0.0 2.0 0.00 0.00 0.00 84 1016.2
20260906160519 77 315 1.0 3.0 0.00 0.00 0.00 88 1016.3
20260906155519 76 0.0 1.0 0.00 0.00 0.00 92 1016.3
20260906154519 74 0.0 2.0 0.00 0.00 0.00 92 1016.2
20260906153559 74 0.0 1.0 0.00 0.00 0.00 93 1016.1
20260906152519 74 0.0 1.0 0.00 0.00 0.00 93 1016.1
20260906151559 74 0.0 2.0 0.00 0.00 0.00 93 1016.2
20260906150559 74 0.0 1.0 0.00 0.00 0.00 93 1016.0
20260906145519 74 0.0 1.0 0.00 0.00 0.00 93 1015.8
20260906144519 74 0.0 1.0 0.00 0.00 0.00 93 1015.9
20260906143519 74 0.0 0.0 0.00 0.00 0.00 93 1015.9
20260906142519 74 0.0 0.0 0.00 0.00 0.00 94 1015.7
20260906141559 73 0.0 1.0 0.00 0.00 0.00 94 1015.6
20260906140559 73 0.0 0.0 0.00 0.00 0.00 95 1015.6
20260906135519 73 0.0 1.0 0.00 0.00 0.00 94 1015.6
20260906134519 73 0.0 1.0 0.00 0.00 0.00 95 1015.5
20260906133519 73 0.0 0.0 0.00 0.00 0.00 95 1015.4
20260906132519 73 0.0 1.0 0.00 0.00 0.00 95 1015.4
20260906131519 73 0.0 1.0 0.00 0.00 0.00 96 1015.3
20260906130559 73 0.0 1.0 0.00 0.00 0.00 96 1015.4
20260906125519 73 0.0 5.0 0.00 0.00 0.00 96 1015.3
20260906124519 73 0.0 3.0 0.00 0.00 0.00 96 1015.2
20260906123519 73 0.0 1.0 0.00 0.00 0.00 97 1015.1
20260906122519 73 0.0 1.0 0.00 0.00 0.00 97 1014.9
20260906121559 72 293 1.0 3.0 0.00 0.00 0.00 97 1014.7
20260906120559 72 270 1.0 3.0 0.00 0.00 0.00 97 1014.6
20260906115519 72 0.0 3.0 0.00 0.00 0.00 97 1014.4
20260906114519 72 0.0 1.0 0.00 0.03 0.00 98 1014.3
20260906113519 72 0.0 4.0 0.00 0.13 0.00 98 1014.1
20260906112519 72 0.0 2.0 0.00 0.13 0.00 98 1014.0
20260906111519 72 0.0 2.0 0.00 0.13 0.00 98 1014.0
20260906110519 72 0.0 2.0 0.00 0.13 0.00 98 1014.1
20260906105519 72 0.0 2.0 0.00 0.13 0.00 98 1014.0
20260906104519 72 0.0 1.0 0.00 0.13 0.00 99 1014.0
20260906103519 72 0.0 1.0 0.00 0.13 0.00 99 1014.0
20260906102519 72 0.0 0.0 0.00 0.13 0.00 99 1014.0
20260906101559 72 0.0 1.0 0.00 0.13 0.00 99 1013.9
20260906100519 72 0.0 2.0 0.00 0.13 0.00 99 1013.7
20260906095559 71 0.0 1.0 0.00 0.13 0.00 99 1013.6
20260906094519 71 0.0 1.0 0.00 0.13 0.00 99 1013.5
20260906093559 71 0.0 0.0 0.00 0.13 0.00 99 1013.4
20260906092519 70 0.0 0.0 0.00 0.20 0.00 98 1013.2
20260906091519 70 0.0 0.0 0.00 0.43 0.00 98 1013.3
20260906090519 71 0.0 0.0 0.00 0.54 0.00 98 1013.3
20260906085519 71 0.0 0.0 0.00 0.54 0.00 98 1013.3
20260906084519 71 0.0 0.0 0.00 0.54 0.00 98 1013.3
20260906083559 71 0.0 0.0 0.00 0.54 0.00 98 1013.3
20260906082519 71 0.0 0.0 0.00 0.54 0.00 98 1013.3
20260906081519 71 0.0 0.0 0.00 0.54 0.00 98 1013.2
20260906080519 72 0.0 0.0 0.00 0.54 0.00 98 1013.2
20260906075519 71 0.0 0.0 0.00 0.54 0.00 98 1013.3
20260906074519 71 0.0 0.0 0.00 0.54 0.00 98 1013.3
20260906073519 71 0.0 0.0 0.00 0.54 0.00 98 1013.2
20260906072519 72 0.0 0.0 0.00 0.54 0.00 98 1013.2
20260906071519 72 0.0 0.0 0.00 0.54 0.00 98 1013.2
20260906070559 72 0.0 0.0 0.00 0.54 0.00 98 1013.3
20260906065519 72 0.0 0.0 0.00 0.54 0.00 98 1013.3
20260906064519 72 0.0 0.0 0.00 0.54 0.00 98 1013.3
20260906063519 72 0.0 0.0 0.00 0.54 0.00 98 1013.3
20260906062559 73 0.0 0.0 0.00 0.54 0.00 98 1013.4
20260906061519 73 0.0 0.0 0.00 0.54 0.00 98 1013.7
20260906060519 73 0.0 0.0 0.00 0.54 0.00 97 1013.8
20260906055519 73 0.0 0.0 0.00 0.54 0.00 97 1013.6
20260906054519 73 0.0 0.0 0.00 0.54 0.00 97 1013.5
20260906053519 73 0.0 0.0 0.00 0.54 0.00 97 1013.4
20260906052519 73 0.0 0.0 0.00 0.54 0.00 97 1013.4
20260906051519 74 0.0 0.0 0.00 0.54 0.00 97 1013.5
20260906050519 74 0.0 0.0 0.00 0.54 0.00 96 1013.5
20260906045519 74 0.0 0.0 0.00 0.54 0.00 96 1013.5
20260906044519 74 0.0 0.0 0.00 0.54 0.00 96 1013.4
20260906043559 74 0.0 0.0 0.00 0.54 0.00 96 1013.3
20260906042519 74 0.0 0.0 0.00 0.54 0.00 96 1012.9
20260906041519 74 0.0 0.0 0.00 0.54 0.00 96 1012.9
20260906040519 75 0.0 0.0 0.00 0.54 0.00 95 1012.8
20260906035559 75 0.0 0.0 0.00 0.54 0.54 95 1012.9
20260906034519 75 0.0 0.0 0.00 0.54 0.54 95 1012.9
20260906033519 75 0.0 0.0 0.00 0.54 0.54 95 1012.7
20260906032559 76 0.0 0.0 0.00 0.54 0.54 95 1012.7
20260906031519 75 0.0 0.0 0.00 0.54 0.54 95 1012.6
20260906030559 75 0.0 0.0 0.00 0.54 0.54 96 1012.6
20260906025519 75 0.0 0.0 0.00 0.54 0.54 96 1012.7
20260906024519 76 0.0 0.0 0.00 0.54 0.54 96 1012.4
20260906023519 76 0.0 0.0 0.00 0.54 0.54 95 1012.4
20260906022559 76 0.0 0.0 0.00 0.54 0.54 95 1012.4
20260906021559 76 0.0 0.0 0.00 0.54 0.54 95 1012.2
20260906020519 76 0.0 0.0 0.00 0.54 0.54 94 1012.0
20260906015519 77 0.0 0.0 0.00 0.54 0.54 94 1012.1
20260906014519 77 0.0 0.0 0.00 0.54 0.54 94 1012.0
20260906013519 78 0.0 0.0 0.00 0.54 0.54 93 1011.8
20260906012559 78 0.0 0.0 0.00 0.54 0.54 93 1011.9
20260906011519 78 0.0 0.0 0.00 0.54 0.54 92 1011.6
20260906010559 79 0.0 0.0 0.00 0.54 0.54 92 1011.5
20260906005520 79 0.0 0.0 0.00 0.54 0.54 91 1011.4
20260906004519 80 0.0 0.0 0.00 0.54 0.54 90 1011.4
20260906003519 80 0.0 0.0 0.00 0.54 0.54 90 1011.5
20260906002519 81 0.0 0.0 0.00 0.54 0.54 89 1011.4
20260906001559 81 0.0 0.0 0.00 0.54 0.54 88 1011.5
20260906000519 82 0.0 3.0 0.00 0.54 0.54 87 1011.7
20260905235519 83 0.0 1.0 0.00 0.54 0.54 86 1011.8
20260905234519 83 0.0 0.0 0.00 0.54 0.54 85 1012.0
20260905233519 84 0.0 0.0 0.00 0.54 0.54 85 1012.2
20260905232519 85 0.0 0.0 0.00 0.54 0.54 82 1012.1
20260905231519 86 0.0 0.0 0.00 0.54 0.54 80 1012.2
20260905230559 87 0.0 0.0 0.00 0.54 0.54 79 1011.9
20260905225519 88 0.0 0.0 0.00 0.54 0.54 77 1011.8
20260905224519 89 0.0 0.0 0.00 0.54 0.54 76 1012.0
20260905223559 91 0.0 0.0 0.00 0.54 0.54 71 1011.7
20260905222519 94 0.0 0.0 0.00 0.54 0.54 63 1011.7
20260905221519 94 0.0 0.0 0.00 0.54 0.54 60 1012.0
20260905220519 95 0.0 0.0 0.00 0.54 0.54 60 1012.0
20260905215519 96 0.0 2.0 0.00 0.54 0.54 53 1011.9
20260905214519 97 0.0 0.0 0.00 0.54 0.54 54 1012.0
20260905213519 95 0.0 1.0 0.00 0.54 0.54 55 1012.1
20260905212519 95 0.0 3.0 0.00 0.54 0.54 52 1012.0
20260905211519 96 0.0 1.0 0.00 0.54 0.54 53 1012.0
20260905210559 96 225 1.0 3.0 0.00 0.54 0.54 52 1012.1
20260905205519 96 0.0 1.0 0.00 0.54 0.54 51 1012.2
20260905204519 95 0.0 1.0 0.00 0.54 0.54 53 1012.2
20260905203559 95 23 1.0 4.0 0.00 0.54 0.54 55 1012.4
20260905202519 95 0.0 1.0 0.00 0.54 0.54 55 1012.4
20260905201519 95 338 1.0 3.0 0.00 0.54 0.54 55 1012.6